This demonstration page uses our WeatherBlox Daily Observations layout. Learn more.

39.92423, -83.80882

Hourly Observations for December 9, 2018

Temp ( °F °C ) Dew Point ( °F °C ) Humidity (%) Winds ( mph kmh ) Pressure ( in mb ) Visibility ( mi km ) Precip ( " mm )
12:56 am 00:56 Clear 22 -5.6 18 -7.8 85 85 E 9 15 30.46 1032 10 16.0934 0 0
1:56 am 01:56 Clear 22 -5.6 18 -7.8 85 85 E 8 13 30.42 1030 10 16.0934 0 0
2:56 am 02:56 Clear 21 -6.1 18 -7.8 88 88 ENE 9 15 30.42 1030 10 16.0934 0 0
3:56 am 03:56 Clear 21 -6.1 18 -7.8 88 88 E 9 15 30.4 1030 10 16.0934 0 0
4:56 am 04:56 Clear 21 -6.1 18 -7.8 88 88 E 9 15 30.37 1029 10 16.0934 0 0
5:56 am 05:56 Clear 21 -6.1 18 -7.8 88 88 ENE 8 13 30.35 1028 10 16.0934 0 0
6:56 am 06:56 Clear 21 -6.1 18 -7.8 88 88 ENE 7 11 30.35 1028 10 16.0934 0 0
7:56 am 07:56 Sunny 21 -6.1 18 -7.8 88 88 NE 8 13 30.34 1028 10 16.0934 0 0
8:56 am 08:56 Sunny 22 -5.6 18 -7.8 85 85 ENE 9 15 30.33 1027 10 16.0934 0 0
9:56 am 09:56 Sunny 23 -5 19 -7.2 85 85 NE 7 11 30.35 1028 10 16.0934 0 0
10:56 am 10:56 Sunny 26 -3.3 19 -7.2 75 75 NE 9 15 30.35 1028 10 16.0934 0 0
11:56 am 11:56 Sunny 30 -1.1 20 -6.7 66 66 ENE 8 13 30.32 1027 10 16.0934 0 0
12:56 pm 12:56 Sunny 33 0.6 19 -7.2 56 56 ENE 5 7 30.3 1026 10 16.0934 0 0
1:56 pm 13:56 Sunny 34 1.1 18 -7.8 52 52 VRB 6 9 30.28 1026 10 16.0934 0 0
2:56 pm 14:56 Sunny 35 1.7 18 -7.8 50 50 ENE 8 13 30.27 1025 10 16.0934 0 0
3:56 pm 15:56 Sunny 34 1.1 17 -8.3 50 50 NNE 9 15 30.25 1024 10 16.0934 0 0
4:56 pm 16:56 Sunny 31 -0.6 18 -7.8 59 59 NNE 8 13 30.25 1025 10 16.0934 0 0
5:56 pm 17:56 Clear 28 -2.2 17 -8.3 63 63 NNE 6 9 30.26 1025 10 16.0934 0 0
6:56 pm 18:56 Clear 26 -3.3 18 -7.8 71 71 N 8 13 30.25 1025 10 16.0934 0 0
7:56 pm 19:56 Clear 25 -3.9 18 -7.8 75 75 N 3 6 30.26 1025 10 16.0934 0 0
8:56 pm 20:56 Clear 23 -5 18 -7.8 81 81 N 7 11 30.27 1025 10 16.0934 0 0
9:56 pm 21:56 Clear 23 -5 18 -7.8 81 81 N 6 9 30.27 1025 10 16.0934 0 0
10:56 pm 22:56 Clear 20 -6.7 17 -8.3 89 89 N 6 9 30.26 1025 10 16.0934 0 0
11:56 pm 23:56 Clear 20 -6.7 17 -8.3 89 89 N 6 9 30.26 1025 10 16.0934 0 0

Powered by AerisWeather